Houma, LA

2:29 AM CDT on June 25, 2017 (GMT -0500)
Houma-terrebonne

Weather History for KHUM - October, 2013

Change the Weather History Date:

Tuesday, October 29, 2013

  Actual Average Record
Temperature  
Mean Temperature 70 °F -  
Max Temperature 82 °F 76 °F 90 °F (1935)
Min Temperature 58 °F 55 °F 32 °F (1952)
Cooling Degree Days 5    
Growing Degree Days 20 (Base 50)    
Moisture  
Dew Point 60 °F    
Average Humidity 84    
Maximum Humidity 94    
Minimum Humidity 51    
Precipitation  
Precipitation 0.00 in - - ()
Sea Level Pressure  
Sea Level Pressure 30.18 in    
Wind  
Wind Speed 2 mph (East)    
Max Wind Speed 16 mph    
Max Gust Speed -    
Visibility 5 miles    
Events Fog    
Averages and records for this station are not official NWS values.
T = Trace of Precipitation, MM = Missing Value Source: NWS Daily Summary

Daily Weather History Graph

Daily Weather History Graph

Search for Another Location

Airport or City:

Trip Planner

Search our weather history database for the weather conditions in past years. The results will help you decide how hot, cold, wet, or windy it might be!

Date:

Astronomy

Oct. 29, 2013 Rise Set
Actual Time 7:13 AM CDT 6:18 PM CDT
Civil Twilight 6:49 AM CDT 6:42 PM CDT
Nautical Twilight 6:21 AM CDT 7:10 PM CDT
Astronomical Twilight 5:53 AM CDT 7:38 PM CDT
Moon 2:26 AM CDT (10/29) 3:12 PM CDT (10/29)
Length of Visible Light 11h 53m
Length of Day
11h 04m
Waning Crescent, 25% of the Moon is Illuminated
Oct 29
Waning Crescent
Nov 3
New
Nov 9
First Quarter
Nov 17
Full
Nov 25
Last Quarter

Hourly Weather History & Observations

Time (CDT) Temp. Heat Index Dew Point Humidity Pressure Visibility Wind Dir Wind Speed Gust Speed Precip Events Conditions
12:15 AM 59.5 °F - 56.7 °F 90% 30.18 in 2.0 mi Calm Calm - N/A   Clear
12:35 AM 59.5 °F - 56.8 °F 91% 30.18 in 0.5 mi Calm Calm - N/A Fog Fog
12:55 AM 59.5 °F - 56.7 °F 90% 30.17 in 0.5 mi Calm Calm - N/A Fog Fog
1:15 AM 59.5 °F - 56.8 °F 91% 30.17 in 1.8 mi Calm Calm - N/A   Mist
1:35 AM 59.9 °F - 56.8 °F 90% 30.17 in 0.2 mi Calm Calm - N/A Fog Fog
1:55 AM 59.7 °F - 57.2 °F 91% 30.17 in 0.5 mi Calm Calm - N/A Fog Fog
2:15 AM 59.2 °F - 56.5 °F 91% 30.17 in 1.2 mi Calm Calm - N/A   Mist
2:35 AM 58.1 °F - 55.4 °F 91% 30.16 in 0.2 mi Calm Calm - N/A Fog Fog
2:55 AM 58.3 °F - 55.4 °F 90% 30.16 in 0.2 mi Calm Calm - N/A Fog Fog
3:15 AM 58.6 °F - 56.3 °F 92% 30.16 in 0.5 mi Calm Calm - N/A Fog Fog
3:35 AM 58.3 °F - 55.6 °F 91% 30.16 in 0.8 mi Calm Calm - N/A   Mist
3:55 AM 59.7 °F - 57.6 °F 93% 30.16 in 0.2 mi Calm Calm - N/A Fog Fog
4:15 AM 61.7 °F - 59.5 °F 93% 30.17 in 0.5 mi Calm Calm - N/A Fog Fog
4:35 AM 61.5 °F - 59.2 °F 92% 30.17 in 0.5 mi Calm Calm - N/A Fog Fog
4:55 AM 60.4 °F - 58.1 °F 92% 30.17 in 0.5 mi Calm Calm - N/A Fog Fog
5:15 AM 62.6 °F - 60.4 °F 93% 30.18 in 4.0 mi Calm Calm - N/A   Clear
5:35 AM 60.3 °F - 58.1 °F 93% 30.18 in 1.0 mi Calm Calm - N/A   Mostly Cloudy
5:48 AM 60.8 °F - 57.2 °F 88% 30.19 in 5.0 mi ENE 8.1 mph - N/A   Mostly Cloudy
5:55 AM 59.5 °F - 57.4 °F 93% 30.18 in 0.5 mi Calm Calm - N/A Fog Fog
6:50 AM 60.8 °F - 59.0 °F 94% 30.19 in 4.0 mi Calm Calm - N/A   Mostly Cloudy
7:50 AM 64.4 °F - 62.6 °F 94% 30.21 in 5.0 mi NNE 4.6 mph - N/A   Mostly Cloudy
8:52 AM 69.8 °F - 66.2 °F 88% 30.22 in 7.0 mi ENE 11.5 mph - N/A   Mostly Cloudy
9:48 AM 75.2 °F - 64.4 °F 69% 30.22 in 7.0 mi ENE 9.2 mph - N/A   Mostly Cloudy
10:48 AM 80.6 °F 82.3 °F 64.4 °F 58% 30.22 in 7.0 mi SE 9.2 mph - N/A   Scattered Clouds
11:48 AM 82.4 °F 83.4 °F 62.6 °F 51% 30.22 in 7.0 mi ESE 16.1 mph - N/A   Mostly Cloudy
12:48 PM 80.6 °F 81.8 °F 62.6 °F 54% 30.19 in 7.0 mi ESE 11.5 mph - N/A   Mostly Cloudy
1:50 PM 82.4 °F 83.4 °F 62.6 °F 51% 30.18 in 7.0 mi ESE 11.5 mph - N/A   Scattered Clouds
2:50 PM 80.6 °F 81.8 °F 62.6 °F 54% 30.15 in 7.0 mi ESE 9.2 mph - N/A   Scattered Clouds
4:50 PM 78.8 °F - 62.6 °F 57% 30.16 in 7.0 mi ESE 8.1 mph - N/A   Scattered Clouds
5:50 PM 77.0 °F - 62.6 °F 61% 30.17 in 7.0 mi ESE 6.9 mph - N/A   Partly Cloudy
6:50 PM 71.6 °F - 62.6 °F 73% 30.17 in 7.0 mi East 4.6 mph - N/A   Partly Cloudy
7:15 PM 68.5 °F - 61.7 °F 79% 30.17 in 10.0 mi East 3.5 mph - N/A   Unknown
7:35 PM 65.5 °F - 61.0 °F 85% 30.17 in 10.0 mi Calm Calm - N/A   Unknown
7:55 PM 64.0 °F - 59.9 °F 86% 30.17 in 10.0 mi East 3.5 mph - N/A   Unknown
8:15 PM 65.1 °F - 61.0 °F 86% 30.18 in 10.0 mi Calm Calm - N/A   Clear
8:35 PM 62.2 °F - 58.5 °F 87% 30.18 in 10.0 mi Calm Calm - N/A   Clear
8:55 PM 61.7 °F - 58.3 °F 89% 30.19 in 10.0 mi Calm Calm - N/A   Clear
9:15 PM 61.5 °F - 58.1 °F 89% 30.19 in 10.0 mi Calm Calm - N/A   Clear
9:35 PM 61.9 °F - 58.6 °F 89% 30.19 in 7.0 mi Calm Calm - N/A   Clear
9:55 PM 62.1 °F - 59.2 °F 90% 30.19 in 7.0 mi Calm Calm - N/A   Clear
10:15 PM 62.1 °F - 59.5 °F 91% 30.19 in 7.0 mi Calm Calm - N/A   Clear
10:35 PM 62.1 °F - 59.2 °F 90% 30.19 in 7.0 mi Calm Calm - N/A   Mostly Cloudy
10:55 PM 64.8 °F - 61.9 °F 90% 30.19 in 7.0 mi Calm Calm - N/A   Overcast
11:15 PM 66.4 °F - 63.7 °F 91% 30.19 in 7.0 mi East 3.5 mph - N/A   Mostly Cloudy
11:35 PM 67.1 °F - 64.0 °F 90% 30.18 in 7.0 mi East 4.6 mph - N/A   Mostly Cloudy
11:55 PM 67.1 °F - 63.9 °F 89% 30.18 in 7.0 mi Calm Calm - N/A   Scattered Clouds